Weather History for Concordia, KS

Change the Weather History Date:

Tuesday, February 5, 2013

  Actual Average Record
Temperature  
Mean Temperature 40 °F 30 °F  
Max Temperature 56 °F 41 °F 71 °F (1963)
Min Temperature 24 °F 20 °F -11 °F (1979)
Degree Days  
Heating Degree Days 25 35  
Month to date heating degree days 158 175  
Since 1 July heating degree days 3266 3479  
Cooling Degree Days 0 0  
Month to date cooling degree days 0 0  
Year to date cooling degree days 0 0  
Moisture  
Dew Point 28 °F    
Average Humidity 65    
Maximum Humidity 92    
Minimum Humidity 38    
Precipitation  
Precipitation 0.00 in 0.03 in 0.28 in (2004)
Month to date precipitation 0.00 0.13  
Year to date precipitation 0.69 0.71  
Snow  
Snow 0.00 in 0.20 in 2.80 in (2008)
Month to date snowfall 0.0 1.1  
Year to date snowfall 5.2 6.8  
Since 1 July snowfall 13.7 13.3  
Snow Depth 0.00 in    
Sea Level Pressure  
Sea Level Pressure 30.00 in    
Wind  
Wind Speed 8 mph (West)    
Max Wind Speed 16 mph    
Max Gust Speed 21 mph    
Visibility 9 miles    
Events      
T = Trace of Precipitation, MM = Missing Value Source: NWS Daily Summary

Daily Weather History Graph

Daily Weather History Graph

Search for Another Location

Airport:

Trip Planner

Search our weather history database for the weather conditions in past years. The results will help you decide how hot, cold, wet, or windy it might be!

Date:

Astronomy

Feb. 05, 2013 Rise Set
Actual Time 7:33 AM CST 5:55 PM CST
Civil Twilight 7:05 AM CST 6:23 PM CST
Nautical Twilight 6:33 AM CST 6:55 PM CST
Astronomical Twilight 6:02 AM CST 7:27 PM CST
Moon 3:16 AM CST (2/5) 1:15 PM CST (2/5)
Length of Visible Light 11h 18m
Length of Day
10h 21m
Waning Crescent, 26% of the Moon is Illuminated
Feb 5
Waning Crescent
Feb 10
New
Feb 17
First Quarter
Feb 25
Full
Mar 4
Last Quarter

Hourly Weather History & Observations

Time (CST) Temp. Windchill Dew Point Humidity Pressure Visibility Wind Dir Wind Speed Gust Speed Precip Events Conditions
12:55 AM 27.0 °F 20.5 °F 23.0 °F 85% 29.92 in 7.0 mi SSW 5.8 mph - N/A   Clear
1:55 AM 27.0 °F - 23.0 °F 85% 29.92 in 6.0 mi Calm Calm - N/A   Clear
2:55 AM 26.1 °F 21.9 °F 21.9 °F 84% 29.92 in 5.0 mi WSW 3.5 mph - N/A   Clear
3:55 AM 30.9 °F 22.8 °F 26.1 °F 82% 29.89 in 7.0 mi SW 9.2 mph - N/A   Clear
4:55 AM 28.9 °F 22.8 °F 26.1 °F 89% 29.92 in 7.0 mi West 5.8 mph - N/A   Clear
5:55 AM 27.0 °F 18.7 °F 24.1 °F 89% 29.93 in 6.0 mi West 8.1 mph - N/A   Clear
6:55 AM 28.9 °F 20.4 °F 25.0 °F 85% 29.94 in 9.0 mi West 9.2 mph - N/A   Clear
7:55 AM 28.0 °F 19.3 °F 24.1 °F 85% 29.97 in 7.0 mi West 9.2 mph - N/A   Clear
8:55 AM 32.0 °F 23.6 °F 27.0 °F 82% 30.00 in 8.0 mi West 10.4 mph - N/A   Clear
9:55 AM 39.9 °F 34.5 °F 30.0 °F 68% 30.01 in 10.0 mi West 8.1 mph - N/A   Clear
10:55 AM 45.0 °F 39.7 °F 30.9 °F 58% 30.04 in 10.0 mi WNW 10.4 mph - N/A   Clear
11:55 AM 51.1 °F - 33.1 °F 50% 30.06 in 10.0 mi NNW 15.0 mph - N/A   Clear
12:55 PM 54.0 °F - 32.0 °F 43% 30.03 in 10.0 mi North 12.7 mph 17.3 mph N/A   Clear
1:55 PM 55.0 °F - 32.0 °F 42% 30.03 in 10.0 mi North 16.1 mph - N/A   Clear
2:55 PM 55.9 °F - 30.9 °F 39% 30.02 in 10.0 mi NNE 10.4 mph - N/A   Clear
3:55 PM 55.0 °F - 30.0 °F 38% 30.03 in 10.0 mi North 6.9 mph - N/A   Clear
4:55 PM 52.0 °F - 30.0 °F 43% 30.02 in 10.0 mi NNE 10.4 mph - N/A   Clear
5:55 PM 46.9 °F - 30.0 °F 52% 30.03 in 10.0 mi ENE 4.6 mph - N/A   Clear
6:55 PM 42.1 °F - 28.9 °F 60% 30.06 in 10.0 mi Calm Calm - N/A   Clear
7:55 PM 39.9 °F 36.7 °F 28.0 °F 63% 30.07 in 10.0 mi SSE 4.6 mph - N/A   Clear
8:55 PM 39.0 °F 35.7 °F 28.0 °F 65% 30.07 in 10.0 mi SE 4.6 mph - N/A   Clear
9:55 PM 39.0 °F 35.7 °F 28.0 °F 65% 30.07 in 10.0 mi SE 4.6 mph - N/A   Clear
10:55 PM 37.0 °F 32.4 °F 27.0 °F 67% 30.06 in 10.0 mi SE 5.8 mph - N/A   Clear
11:55 PM 36.0 °F 32.1 °F 27.0 °F 70% 30.05 in 10.0 mi SE 4.6 mph - N/A   Clear